SES-5

operational
NORAD ID: 38652 Int'l Des: 2012-036 Owner: SESS/SESSAN Country: S
HEOCIRCULARGSOGEO

关于 SES-5

正在加载描述...

实时位置

正在加载3D地球...

即将过境

高度历史

Altitude vs Time

uPlot chart will show altitude changes over time

两行轨道根数

1 38652U 12036A 26062.15959362 .00000018 00000-0 00000+0 0 9990
2 38652 0.0623 308.3085 0002013 28.3836 246.6545 1.00271204 43398
Epoch: Mar 3, 2026 • Age: 28 hours

当前状态

高度 35790.0 km
速度 3.07 km/s
星下点 -0.03°S, 4.96°E
发射日期 Jul 9, 2012
运行时间 13.6 years
类型 communications

技术详情

分类 Payload
质量 6007.00 kg
干质量 4000.00 kg
总质量 6007.00 kg
长度 7.00 m
直径 2.40 m
跨度 27.00 m
形状 Box + 2 pan
制造商 LOR
平台类型 SSL-1300
阶段状态 In Orbit
所有者/国家 SESS/SESSAN/S

大型星座

Loading constellations...